Flag for Romania Weather past 2 weeks in Iasi, Romania

Now
73 °F

Sunny.


Feels Like: 74 °F
Forecast: 71 / 91 °F
Wind: 3 mph from Southwest

Location: Iasi Airport

Current Time: Jul 8, 2015 at 7:34:48 AM

Latest Report: Jul 8, 2015 at 6:30 AM


Visibility: 10 mi

Pressure: 29.89 "Hg

Humidity: 78%

Dew point: 66 °F

Location of IasiLocation

Historic Weather in Iasi — Graph

°F

Iasi temperature yesterday

Maximum temperature yesterday: 93 °F (at 7:30 PM)
Minimum temperature yesterday: 68 °F (at 5:00 AM)
Average temperature yesterday: 83 °F

Past Weeks' High & Low Weather Summary

 TemperatureHumidityPressure
High93 °F (Jul 7, 7:30 PM)100% (Jun 26, 1:00 AM)30.30 "Hg (Jun 26, 1:00 AM)
Low57 °F (Jun 23, 5:00 AM)26% (Jul 6, 5:30 PM)29.83 "Hg (Jun 26, 4:30 PM)
Average72 °F61%30.02 "Hg
* Reported Jun 23 5:00 AM — Jul 8 5:30 AM, Iasi, Weather by CustomWeather, © 2015

Note: Actual official high and low records may vary slightly from our data, if they occured in-between our weather recording intervals... More about our weather records

Advertising

Iasi weather history for previous 24 hours

 ConditionsComfort  
Time TempWeatherWind HumidityBarometerVisibility
5:30 AM
Wed, Jul 8
73 °FClear.5 mph78%29.89 "Hg10 mi
5:00 AM73 °FClear.3 mph78%29.89 "Hg10 mi
4:00 AM73 °FClear.3 mph78%29.89 "Hg10 mi
3:00 AM73 °FClear.1 mph78%29.89 "Hg10 mi
2:00 AM77 °FClear.5 mph69%29.89 "Hg10 mi
1:00 AM79 °FClear.1 mph61%29.92 "Hg10 mi
12:00 AM79 °FClear.1 mph65%29.92 "Hg10 mi
11:00 PM
Tue, Jul 7
81 °FClear.2 mph62%29.92 "Hg10 mi
10:00 PM84 °FSunny.2 mph55%29.92 "Hg10 mi
9:00 PM86 °FSunny.2 mph52%29.92 "Hg10 mi
8:30 PM88 °FSunny.5 mph46%29.92 "Hg10 mi
8:00 PM90 °FSunny.2 mph43%29.95 "Hg10 mi
7:30 PM93 °FSunny.No wind39%29.95 "Hg10 mi
7:00 PM91 °FSunny.1 mph41%29.95 "Hg10 mi
6:30 PM91 °FPassing clouds.2 mph41%29.95 "HgN/A
6:00 PM91 °FSunny.2 mph41%29.95 "Hg10 mi
5:30 PM91 °FPassing clouds.3 mph41%29.95 "HgN/A
5:00 PM91 °FSunny.2 mph41%29.95 "Hg10 mi
4:30 PM90 °FPassing clouds.3 mph43%29.98 "HgN/A
4:00 PM90 °FPassing clouds.6 mph46%29.98 "HgN/A
3:30 PM88 °FSunny.9 mph49%29.98 "Hg10 mi
3:00 PM90 °FSunny.10 mph46%29.98 "Hg10 mi
2:30 PM88 °FSunny.13 mph49%29.98 "Hg10 mi
2:00 PM90 °FPassing clouds.7 mph46%30.01 "HgN/A
1:30 PM90 °FPassing clouds.9 mph46%30.01 "HgN/A
1:00 PM90 °FPassing clouds.8 mph46%30.01 "HgN/A
12:30 PM88 °FSunny.9 mph46%30.01 "Hg10 mi
12:00 PM86 °FPassing clouds.8 mph52%30.01 "HgN/A
11:30 AM86 °FSunny.9 mph52%30.01 "Hg10 mi
11:00 AM84 °FSunny.10 mph51%30.01 "Hg10 mi
10:30 AM82 °FSunny.9 mph58%30.01 "Hg10 mi
10:00 AM81 °FPassing clouds.3 mph62%30.01 "HgN/A
9:30 AM81 °FPassing clouds.5 mph58%30.01 "HgN/A
9:00 AM79 °FPassing clouds.7 mph61%30.01 "HgN/A
8:30 AM77 °FPassing clouds.7 mph65%30.01 "HgN/A
8:00 AM75 °FPassing clouds.5 mph65%30.01 "HgN/A
7:30 AM73 °FSunny.3 mph65%30.01 "Hg10 mi
7:00 AM72 °FSunny.3 mph69%30.01 "Hg10 mi
Weather by CustomWeather, © 2015

See weather overviewHow to use our weather pages